WX4FLY-3 Weather Reports


time (UTC)temp
C
wind
direction
speed
KPH
gust
KPH
rain 1hr
cm
rain 24hr
cm
rain mn
cm
humidity
%
barometer
mb
20260503174527 16 325 12.9 16.1 0.00 0.41 0.00 55 1018.6
20260503173526 16 334 9.7 19.3 0.00 0.41 0.00 58 1018.7
20260503172526 15 11 12.9 20.9 0.00 0.41 0.00 57 1018.7
20260503171525 15 346 11.3 17.7 0.00 0.41 0.00 61 1018.8
20260503170525 15 330 12.9 16.1 0.00 0.48 0.00 59 1018.9
20260503150518 13 351 16.1 27.4 0.00 0.71 0.00 74 1018.8
20260503130511 11 298 17.7 25.7 0.00 0.71 0.00 76 1017.9
20260503110504 10 320 16.1 20.9 0.00 0.86 0.00 89 1016.7
20260503090457 10 304 17.7 25.7 0.00 0.89 0.00 91 1014.9
20260503081455 10 301 16.1 22.5 0.00 0.89 0.00 91 1014.7
20260503080454 10 307 17.7 19.3 0.00 0.89 0.00 91 1014.7
20260503072452 11 320 20.9 29.0 0.00 0.89 0.00 90 1014.2
20260503071451 11 312 22.5 29.0 0.00 0.89 0.00 91 1014.2
20260503070451 11 302 22.5 32.2 0.00 0.94 0.00 91 1014.0
20260503054446 12 335 17.7 22.5 0.00 1.02 0.00 89 1012.8
20260503053445 12 331 19.3 24.1 0.00 1.02 0.00 90 1012.9
20260503052445 12 322 19.3 24.1 0.00 1.02 0.00 89 1012.9
20260503051444 12 337 19.3 25.7 0.00 1.02 0.00 88 1012.7
20260503050444 12 339 20.9 29.0 0.00 1.02 0.00 89 1012.8
20260503045443 12 327 19.3 29.0 0.00 1.02 0.00 89 1013.1
20260503044443 12 325 17.7 24.1 0.00 1.02 0.00 89 1013.0
20260503043442 12 16 17.7 22.5 0.00 1.02 0.00 90 1012.8
20260503042441 12 0 17.7 25.7 0.00 1.02 0.00 91 1012.6
20260503041441 12 31 19.3 24.1 0.00 1.02 0.00 92 1012.5
20260503040440 12 344 22.5 27.4 0.00 1.02 0.00 93 1012.8
20260503035440 12 328 20.9 29.0 0.00 1.02 1.02 92 1012.9
20260503034439 11 330 20.9 29.0 0.00 1.02 1.02 92 1012.7
20260503033439 11 325 20.9 27.4 0.00 1.02 1.02 93 1012.8
20260503032438 11 337 22.5 30.6 0.00 1.02 1.02 93 1012.6
20260503031437 11 322 19.3 22.5 0.00 1.02 1.02 95 1012.5
20260503030437 11 320 24.1 33.8 0.00 1.02 1.02 95 1012.3
20260503025436 11 339 22.5 32.2 0.00 1.02 1.02 96 1012.3
20260503024436 11 345 22.5 30.6 0.00 1.02 1.02 96 1012.3
20260503023435 11 346 20.9 30.6 0.00 1.02 1.02 96 1012.2
20260503022435 11 28 19.3 29.0 0.00 1.02 1.02 97 1012.1
20260503021434 11 345 20.9 27.4 0.00 1.02 1.02 97 1012.1
20260503020433 11 346 22.5 30.6 0.00 1.02 1.02 97 1012.4
20260503015433 11 347 24.1 30.6 0.00 1.02 1.02 97 1012.0
20260503014432 11 8 20.9 30.6 0.00 1.02 1.02 98 1012.2
20260503013432 11 38 20.9 25.7 0.00 1.02 1.02 98 1012.1
20260503012431 11 5 19.3 27.4 0.00 1.02 1.02 98 1012.4
20260503011431 11 2 19.3 25.7 0.00 1.02 1.02 98 1012.2
20260503010430 11 23 20.9 30.6 0.00 1.02 1.02 98 1012.0
20260503005429 11 24 22.5 30.6 0.00 1.02 1.02 98 1012.0
20260503004429 11 13 22.5 32.2 0.03 1.02 1.02 97 1011.9
20260503003428 11 32 24.1 33.8 0.03 1.02 1.02 97 1011.7
20260503002428 11 356 24.1 33.8 0.03 1.02 1.02 98 1011.5
20260503001427 11 332 25.7 35.4 0.03 1.02 1.02 97 1011.4
20260503000427 11 356 27.4 37.0 0.05 1.02 1.02 97 1010.9
20260502235426 12 9 22.5 32.2 0.05 1.02 1.02 98 1011.1
20260502234425 11 41 24.1 32.2 0.10 0.99 0.99 97 1010.8
20260502233425 11 28 27.4 33.8 0.13 0.99 0.99 97 1010.2
20260502232424 11 6 25.7 33.8 0.13 0.99 0.99 97 1010.4
20260502231424 12 52 25.7 35.4 0.13 0.99 0.99 97 1010.6
20260502230423 12 14 22.5 30.6 0.13 0.97 0.97 97 1010.4
20260502225423 12 341 20.9 29.0 0.13 0.97 0.97 97 1010.3
20260502224422 12 36 19.3 25.7 0.05 0.89 0.89 97 1010.4
20260502223421 12 12 19.3 29.0 0.03 0.86 0.86 97 1010.3
20260502222421 12 350 22.5 27.4 0.03 0.86 0.86 97 1009.9
20260502221420 12 356 22.5 30.6 0.03 0.86 0.86 97 1009.9
20260502220420 12 36 22.5 32.2 0.00 0.84 0.84 97 1009.8
20260502215419 12 38 22.5 30.6 0.00 0.84 0.84 97 1009.8
20260502214419 12 31 25.7 33.8 0.00 0.84 0.84 97 1009.8
20260502213418 12 3 25.7 35.4 0.03 0.84 0.84 97 1009.9
20260502212417 13 35 20.9 29.0 0.03 0.84 0.84 97 1009.7
20260502211417 12 6 20.9 32.2 0.05 0.84 0.84 97 1010.0
20260502210416 12 20 22.5 27.4 0.08 0.84 0.84 97 1009.9
20260502205416 13 355 24.1 29.0 0.13 0.84 0.84 97 1009.9
20260502204415 13 27 25.7 35.4 0.13 0.84 0.84 97 1009.6
20260502203415 13 33 24.1 37.0 0.10 0.81 0.81 97 1009.5
20260502202414 13 29 22.5 32.2 0.10 0.81 0.81 97 1009.6
20260502201413 13 33 22.5 30.6 0.10 0.79 0.79 97 1009.8
20260502200413 13 43 20.9 29.0 0.10 0.76 0.76 97 1010.0
20260502195412 13 50 22.5 30.6 0.08 0.71 0.71 97 1010.0
20260502194412 13 46 22.5 30.6 0.08 0.71 0.71 97 1010.1
20260502193411 13 35 20.9 29.0 0.08 0.71 0.71 97 1010.2
20260502192411 13 48 20.9 32.2 0.10 0.71 0.71 97 1010.2
20260502191410 13 43 20.9 30.6 0.08 0.69 0.69 97 1010.5
20260502190409 13 53 20.9 29.0 0.05 0.66 0.66 97 1010.9
20260502185409 13 41 19.3 29.0 0.03 0.64 0.64 97 1010.6
20260502184408 13 40 20.9 27.4 0.03 0.64 0.64 97 1010.6
20260502183408 13 33 20.9 30.6 0.05 0.64 0.64 97 1010.6
20260502182407 13 32 20.9 27.4 0.03 0.61 0.61 97 1010.6
20260502181407 13 35 22.5 30.6 0.05 0.61 0.61 97 1010.5
20260502180406 14 26 22.5 30.6 0.08 0.61 0.61 97 1011.1